Showing default

VIGORIDE 5, 55056

Orbit data source: Space-Track

VIGORIDE 5, 55056 is a payload satellite owned by Momentus (US) in SSO that was launched on Tue, 03 Jan 2023 UTC via an FALCON 9 launch vehicle from the Air Force Eastern Test Range (AFETR). Payload-class satellites include a variety of spacecraft equipped with specific instruments for various scientific and technological missions. These include communications satellites like Starlink; space stations such as the ISS; scientific satellites like the Hubble; Earth observation satellites from companies like Planet Labs, Umbra, and HawkEye 360; GPS; miniature CubeSats for education and research; and military/defense satellites.

Loading next visibility...
Identifier
55056, 2023-001AZ
Orbit
SSO
Country
Flag of USUS
Related business
Manufacturer
Momentus
Mission
Operational Commercial Technology
Bus & Motor
VIGORIDE, AOCS
Mass
363 kg wet, 292 kg dry
Launch date (UTC)
2023-01-03 (3 years ago)
Launch vehicle
FALCON 9
Launch site
Air Force Eastern Test Range (AFETR)
Object type
Payload
Rocket body
Debris
Shape & HBR
Box + 2 Pan, 3.3 m
Radar Cross Section
1.548 m², Large (>1 m²)

Expand to show TLE details & history
Last TLE update: 10 hours ago

TLE from 10 hours ago
0 VIGORIDE 5
1 55056U 23001AZ  25286.90980694  .00040744  00000-0  95843-3 0  9996
2 55056  97.3579 348.4804 0002988 254.8004 105.2912 15.41860631154481
Epoch: 2025-10-13T21:50Z
TLE epoch observation values (Epoch: 2025-10-13T21:50:07.319Z)
Latitude
-0.00011°
Longitude
-1.7559°
Altitude
444.277 km
Speed
7.645 km/s
True Right ascension
23h 13m 55s
True Declination
0° 00' 00"
Sunlit
Object was in full shadow at epoch
Visualization orbit readout
Latitude
Unknown
Longitude
Unknown
Altitude
Unknown
Speed
Unknown
Apparent Right ascension
Unknown
Apparent Declination
Unknown
Sunlit
N/A
Visualization observer readout
Local Sidereal Time
02:30:11
Azimuth
Unknown
Elevation
Unknown
Doppler factor
Unknown
Orbital elements
Apogee altitude
439.589 km
Perigee altitude
435.516 km
Semi-major axis
6,815.69 km
Eccentricity
0.0003
Inclination
97.3579°
RAAN
348.4804°
Arg. of periapsis
254.8004°
True anomaly
105.32422°
Mean anomaly
105.2912°
Eccentric anomaly
105.30771°
Mean motion
3.85726 °/min
Orbital period
93.33 mins
BSTAR
0.00095843
Loading maneuver chart data...
Computing Atmospheric mass density...
Loading historical data...
Loading historical data...
Loading historical data...
Loading historical data...
Loading historical data...
Loading historical data...
Loading historical data...

Documentation

Showing up to 5 results
|